Regional Weather Roundup
Issued by NWS

Home | Current Version | Previous Version | Graphics & Text | Print | Product List | Glossary On
Versions: 1 2 3 4 5 6 7 8 9 10 11 12 13 14 15 16 17 18 19 20 21 22 23 24 25 26 27
000
ASUS45 KBOU 182107
RWRCO

WEATHER ROUNDUP FOR COLORADO
NATIONAL WEATHER SERVICE DENVER/BOULDER CO
200 PM MST WED JAN 18 2017

NOTE: "FAIR" INDICATES FEW OR NO CLOUDS BELOW 12000 FEET WITH NO
SIGNIFICANT WEATHER AND/OR OBSTRUCTIONS TO VISIBILITY.

COZ001>005-013-030-031-182200-
...NORTHWEST COLORADO...

CITY           SKY/WX    TMP DP  RH WIND       PRES   REMARKS
CRAIG          FAIR      16  11  80 CALM      30.03F
HAYDEN         FAIR      23  16  74 NE3       30.01F
MEEKER         FAIR      32  19  58 CALM      30.00F
MOUNT WERNER   NOT AVBL
STEAMBOAT SPGS FAIR      20  15  79 CALM      30.00F
WALDEN           N/A    N/A N/A N/A CALM      30.00F
$$

COZ006>008-011-182200-
...WEST CENTRAL VALLEYS...

CITY           SKY/WX    TMP DP  RH WIND       PRES   REMARKS
GRAND JUNCTION FAIR      42  31  64 N5        30.03F
MONTROSE       FAIR      42  24  49 CALM      30.03F
EAGLE          SUNNY     32  18  55 CALM      30.05F
RIFLE          FAIR      42  22  44 CALM      30.01F
DELTA          FAIR      47  27  45 CALM      30.02F
NUCLA          PTSUNNY   43  27  52 SW3       30.07F
$$

COZ017>023-064>068-182200-
...SOUTHWEST COLORADO...

CITY           SKY/WX    TMP DP  RH WIND       PRES   REMARKS
DURANGO        CLOUDY    40  29  64 S10       30.00F
CORTEZ         CLOUDY    43  31  62 VRB6      30.04F
PAGOSA SPRINGS CLOUDY    35  26  70 SW6       30.01F WCI  30
TELLURIDE      FAIR      33  16  48 CALM      30.02F
WOLF CREEK PAS CLOUDY    18  18 100 SW8       30.04F WCI   7
$$

COZ009-010-012-014-032>034-037-058>063-182200-
...CENTRAL COLORADO...

CITY           SKY/WX    TMP DP  RH WIND       PRES   REMARKS
ASPEN          FAIR      34  15  46 N3        29.99F
BUENA VISTA    FAIR      30  12  48 CALM      29.91F
COPPER MTN     NOT AVBL
BERTHOUD PASS  NOT AVBL
COTTONWOOD PAS FAIR      37   9  30 E5        29.93S
GUNNISON       FAIR      28  18  66 E3        30.03F
KREMMLING      FAIR      28  18  64 CALM      30.05F
LEADVILLE      FAIR      35  11  36 N12G25    29.93F WCI  27
MONARCH PASS   FAIR      19  16  86 MISG      30.08F
SALIDA         FAIR      40  19  41 CALM      29.97F
SUNLIGHT       FAIR      25  18  74 SW3       30.04F
WILKERSON PASS FAIR      34  -9  15 CALM      29.98F
$$

COZ069>075-182200-
...SAN LUIS VALLEY/SANGRE DE CRISTO MOUNTAINS...

CITY           SKY/WX    TMP DP  RH WIND       PRES   REMARKS
ALAMOSA        CLOUDY    28  23  81 SE7       29.99F WCI  21
LA VETA PASS   FOG       23  19  86 NE26G32   29.93F VSB 3/4 WCI   6
SAGUACHE       FAIR      32  23  69 SE5       29.98F WCI  27
$$

COZ035-036-038>040-182200-
...NORTHERN COLORADO FRONT RANGE...

CITY           SKY/WX    TMP DP  RH WIND       PRES   REMARKS
DENVER INTL AP FAIR      51  15  23 S9        29.78F
DMNS CITY PARK   N/A     57   9  15 NE1G9     29.78F
AURORA         MOSUNNY   52  13  21 SE7       29.79F
FRONT RANGE AP MOSUNNY   54  14  20 SE7       29.80F
ERIE MUNI ARPT FAIR      51  15  24 CALM      29.79F
BOULDER MUN AP FAIR      50  19  29 NE3       29.78F
CENTENNIAL     FAIR      48  11  22 SE6       29.79F
BROOMFIELD     MOSUNNY   52  12  20 VRB5      29.80F
FORT COLLINS   FAIR      48  19  32 S7        29.79F
LONGMONT       FAIR      52  19  28 CALM      29.80F
$$

COZ041-046-047-076>085-087-088-182200-
...PIKES PEAK/PALMER DIVIDE AND SOUTHERN FOOTHILLS...

CITY           SKY/WX    TMP DP  RH WIND       PRES   REMARKS
COLO. SPRINGS  PTSUNNY   52  15  23 S14       29.83F
A. F. ACADEMY  FAIR      54  -8   7 S5        29.81F
SCHRIEVER AFB  NOT AVBL
ELLICOTT       FAIR     N/A N/A N/A VRB5      29.82F
FALCON         FAIR      50   2  13 SW5       29.84F
FORT CARSON    NOT AVBL
LIMON          FAIR      48  15  26 S8        29.82F
MONUMENT HILL  FAIR      45   7  21 S5        29.85F
TRINIDAD       FAIR      37  25  61 CALM      29.85F
$$

COZ042>045-048>051-090-091-182200-
...NORTHEAST COLORADO...

CITY           SKY/WX    TMP DP  RH WIND       PRES   REMARKS
GREELEY ARPT   FAIR      49  24  37 CALM      29.80F
AKRON          FAIR      45  24  43 W8        29.79F
BURLINGTON     FAIR      47  27  45 S7        29.82F
WRAY           FAIR      48  28  46 CALM      29.80F
STERLING       FAIR      45  32  61 SW9       29.78F
HOLYOKE        FAIR      46  34  61 S6        29.80F
FORT MORGAN    FAIR      46  25  44 SE5       29.81F
$$

COZ086-089-092>099-182200-
...SOUTHEAST COLORADO...

CITY           SKY/WX    TMP DP  RH WIND       PRES   REMARKS
PUEBLO         FAIR      48  30  49 S6        29.81F
LA JUNTA       FAIR      41  28  60 CALM      29.84F
LAMAR          FAIR      38  31  76 CALM      29.84F
SPRINGFIELD      N/A     49  33  54 S8        29.83F
$$




USA.gov is the U.S. government's official web portal to all federal, state and local government web resources and services.